CSJ915 KCAK-CYHM

Flight info

Callsign CSJ915
Flight time 0h 59m
Altitude 5000
Route DCT
Aircraft C208/L-SDFGR/C

Departure

Time 2026-05-09 02:04
Airport Akron Canton Regional Airport (KCAK)

Arrival

Time 2026-05-09 03:03
Airport John C. Munro Hamilton International Airport (CYHM)
Time Latitude Longitude Altitude Speed Heading
2026-05-09 01:49 40.90793 -81.43901 1221 ft 0 kts 94°
2026-05-09 01:54 40.90797 -81.43893 1221 ft 3 kts 26°
2026-05-09 01:54 40.90843 -81.43890 1221 ft 9 kts
2026-05-09 01:54 40.90895 -81.43920 1221 ft 12 kts 280°
2026-05-09 01:55 40.90958 -81.43978 1220 ft 16 kts
2026-05-09 01:55 40.91085 -81.43971 1221 ft 18 kts
2026-05-09 01:55 40.91197 -81.43934 1221 ft 15 kts 21°
2026-05-09 01:55 40.91308 -81.43874 1221 ft 17 kts 24°
2026-05-09 01:56 40.91392 -81.43903 1222 ft 13 kts 328°
2026-05-09 01:56 40.91497 -81.43939 1221 ft 19 kts
2026-05-09 01:56 40.91613 -81.43902 1221 ft 13 kts 28°
2026-05-09 01:56 40.91680 -81.43819 1221 ft 16 kts 72°
2026-05-09 01:57 40.91731 -81.43694 1221 ft 15 kts 47°
2026-05-09 01:57 40.91808 -81.43589 1221 ft 17 kts 44°
2026-05-09 01:57 40.91895 -81.43517 1221 ft 13 kts 29°
2026-05-09 01:57 40.91952 -81.43480 1221 ft 0 kts 15°
2026-05-09 02:02 40.91960 -81.43479 1221 ft 5 kts 359°
2026-05-09 02:02 40.92017 -81.43543 1221 ft 17 kts 271°
2026-05-09 02:02 40.91919 -81.43703 1219 ft 37 kts 227°
2026-05-09 02:03 40.91652 -81.44081 1220 ft 73 kts 227°
2026-05-09 02:03 40.91276 -81.44628 1277 ft 84 kts 225°
2026-05-09 02:03 40.90881 -81.45181 1413 ft 81 kts 222°
2026-05-09 02:03 40.90500 -81.45696 1549 ft 76 kts 222°
2026-05-09 02:04 40.90022 -81.45818 1621 ft 76 kts 155°
2026-05-09 02:04 40.89611 -81.45363 1714 ft 76 kts 119°
2026-05-09 02:04 40.89581 -81.44603 1786 ft 87 kts 71°
2026-05-09 02:04 40.89856 -81.43892 1947 ft 89 kts 53°
2026-05-09 02:05 40.90214 -81.43207 2051 ft 97 kts 49°
2026-05-09 02:05 40.90613 -81.42487 2217 ft 96 kts 45°
2026-05-09 02:05 40.91045 -81.41758 2329 ft 105 kts 44°
2026-05-09 02:05 40.91526 -81.40997 2467 ft 110 kts 40°
2026-05-09 02:06 40.92085 -81.40237 2546 ft 118 kts 37°
2026-05-09 02:06 40.92732 -81.39479 2575 ft 128 kts 32°
2026-05-09 02:06 40.93433 -81.38754 2627 ft 133 kts 32°
2026-05-09 02:07 40.94930 -81.37104 2566 ft 144 kts 35°
2026-05-09 02:07 40.95693 -81.36242 2574 ft 144 kts 35°
2026-05-09 02:07 40.96492 -81.35377 2581 ft 151 kts 33°
2026-05-09 02:07 40.97322 -81.34527 2689 ft 152 kts 31°
2026-05-09 02:08 40.98247 -81.33684 2529 ft 166 kts 28°
2026-05-09 02:08 40.99215 -81.32903 2553 ft 162 kts 25°
2026-05-09 02:08 41.00161 -81.32164 2728 ft 154 kts 25°
2026-05-09 02:08 41.01110 -81.31442 2698 ft 160 kts 25°
2026-05-09 02:09 41.02088 -81.30700 2673 ft 163 kts 25°
2026-05-09 02:09 41.03079 -81.29942 2652 ft 165 kts 25°
2026-05-09 02:09 41.04065 -81.29183 2645 ft 163 kts 25°
2026-05-09 02:09 41.05032 -81.28447 2639 ft 161 kts 25°
2026-05-09 02:10 41.05994 -81.27701 2638 ft 160 kts 25°
2026-05-09 02:10 41.06944 -81.26945 2635 ft 159 kts 25°
2026-05-09 02:10 41.07877 -81.26195 2722 ft 153 kts 25°
2026-05-09 02:10 41.08762 -81.25482 2872 ft 146 kts 25°
2026-05-09 02:11 41.09608 -81.24785 3026 ft 141 kts 25°
2026-05-09 02:11 41.10427 -81.24096 3177 ft 138 kts 25°
2026-05-09 02:11 41.11233 -81.23427 3327 ft 135 kts 22°
2026-05-09 02:11 41.12042 -81.22812 3479 ft 133 kts 21°
2026-05-09 02:12 41.12845 -81.22223 3628 ft 131 kts 20°
2026-05-09 02:12 41.13641 -81.21638 3779 ft 130 kts 20°
2026-05-09 02:12 41.14431 -81.21054 3936 ft 129 kts 20°
2026-05-09 02:12 41.15219 -81.20477 4094 ft 129 kts 20°
2026-05-09 02:13 41.16005 -81.19901 4253 ft 129 kts 19°
2026-05-09 02:13 41.16789 -81.19313 4416 ft 129 kts 20°
2026-05-09 02:13 41.17565 -81.18732 4580 ft 130 kts 19°
2026-05-09 02:13 41.18366 -81.18201 4736 ft 127 kts 10°
2026-05-09 02:14 41.19213 -81.17793 4906 ft 126 kts
2026-05-09 02:14 41.20028 -81.17436 5048 ft 126 kts
2026-05-09 02:14 41.20867 -81.17088 5206 ft 126 kts
2026-05-09 02:14 41.21718 -81.16762 5329 ft 129 kts
2026-05-09 02:15 41.22602 -81.16440 5399 ft 135 kts
2026-05-09 02:15 41.23532 -81.16103 5414 ft 142 kts
2026-05-09 02:15 41.24500 -81.15756 5418 ft 146 kts
2026-05-09 02:15 41.25497 -81.15400 5429 ft 150 kts
2026-05-09 02:16 41.26517 -81.15043 5431 ft 152 kts
2026-05-09 02:16 41.27550 -81.14686 5433 ft 155 kts
2026-05-09 02:16 41.28594 -81.14312 5432 ft 156 kts
2026-05-09 02:16 41.29639 -81.13936 5435 ft 156 kts
2026-05-09 02:17 41.30688 -81.13559 5433 ft 157 kts
2026-05-09 02:17 41.31739 -81.13175 5432 ft 157 kts
2026-05-09 02:17 41.32794 -81.12800 5445 ft 157 kts
2026-05-09 02:17 41.33844 -81.12432 5448 ft 159 kts
2026-05-09 02:18 41.34913 -81.12050 5443 ft 159 kts
2026-05-09 02:18 41.35985 -81.11666 5441 ft 160 kts
2026-05-09 02:18 41.37058 -81.11290 5440 ft 159 kts
2026-05-09 02:18 41.38133 -81.10914 5443 ft 160 kts
2026-05-09 02:19 41.39207 -81.10537 5442 ft 159 kts
2026-05-09 02:19 41.40281 -81.10159 5441 ft 159 kts
2026-05-09 02:19 41.41349 -81.09783 5442 ft 159 kts
2026-05-09 02:19 41.42423 -81.09410 5448 ft 159 kts
2026-05-09 02:20 41.43501 -81.09115 5447 ft 157 kts 360°
2026-05-09 02:20 41.44581 -81.08889 5443 ft 158 kts
2026-05-09 02:20 41.45645 -81.08579 5449 ft 160 kts
2026-05-09 02:20 41.46716 -81.08136 5451 ft 162 kts 11°
2026-05-09 02:21 41.47777 -81.07596 5449 ft 164 kts 14°
2026-05-09 02:21 41.48825 -81.06994 5440 ft 164 kts 14°
2026-05-09 02:21 41.49874 -81.06401 5436 ft 164 kts 13°
2026-05-09 02:21 41.50926 -81.05811 5441 ft 164 kts 13°
2026-05-09 02:22 41.51971 -81.05193 5432 ft 164 kts 15°
2026-05-09 02:22 41.53006 -81.04547 5433 ft 163 kts 16°
2026-05-09 02:22 41.54032 -81.03893 5439 ft 164 kts 16°
2026-05-09 02:22 41.55061 -81.03231 5438 ft 164 kts 16°
2026-05-09 02:23 41.56086 -81.02563 5437 ft 164 kts 17°
2026-05-09 02:23 41.57109 -81.01893 5439 ft 164 kts 17°
2026-05-09 02:23 41.58122 -81.01228 5443 ft 164 kts 17°
2026-05-09 02:23 41.59150 -81.00550 5441 ft 165 kts 17°
2026-05-09 02:24 41.61106 -80.99262 5439 ft 165 kts 17°
2026-05-09 02:24 41.62145 -80.98570 5433 ft 166 kts 18°
2026-05-09 02:24 41.63169 -80.97877 5434 ft 166 kts 17°
2026-05-09 02:25 41.64189 -80.97200 5437 ft 166 kts 17°
2026-05-09 02:25 41.65229 -80.96528 5432 ft 166 kts 17°
2026-05-09 02:25 41.66265 -80.95856 5427 ft 165 kts 17°
2026-05-09 02:25 41.67297 -80.95183 5426 ft 165 kts 17°
2026-05-09 02:26 41.68330 -80.94507 5424 ft 165 kts 17°
2026-05-09 02:26 41.69360 -80.93824 5415 ft 166 kts 17°
2026-05-09 02:26 41.70426 -80.93132 5261 ft 173 kts 17°
2026-05-09 02:26 41.71515 -80.92419 5110 ft 176 kts 18°
2026-05-09 02:27 41.72604 -80.91696 5076 ft 171 kts 18°
2026-05-09 02:27 41.73648 -80.90997 5096 ft 165 kts 18°
2026-05-09 02:27 41.74667 -80.90321 5106 ft 162 kts 17°
2026-05-09 02:27 41.75674 -80.89653 5111 ft 161 kts 17°
2026-05-09 02:28 41.76677 -80.88996 5052 ft 163 kts 17°
2026-05-09 02:28 41.77679 -80.88334 5086 ft 159 kts 17°
2026-05-09 02:28 41.78668 -80.87687 4972 ft 163 kts 15°
2026-05-09 02:28 41.79709 -80.87067 4933 ft 162 kts 15°
2026-05-09 02:29 41.80718 -80.86412 4928 ft 161 kts 17°
2026-05-09 02:29 41.81724 -80.85730 4923 ft 162 kts 18°
2026-05-09 02:29 41.82732 -80.85043 4925 ft 163 kts 18°
2026-05-09 02:29 41.83746 -80.84355 4926 ft 164 kts 18°
2026-05-09 02:30 41.84765 -80.83667 4921 ft 164 kts 18°
2026-05-09 02:30 41.85784 -80.82987 4921 ft 164 kts 18°
2026-05-09 02:30 41.86792 -80.82315 4915 ft 164 kts 18°
2026-05-09 02:30 41.87813 -80.81635 4916 ft 163 kts 18°
2026-05-09 02:31 41.88830 -80.80959 4915 ft 163 kts 18°
2026-05-09 02:31 41.89844 -80.80284 4915 ft 162 kts 19°
2026-05-09 02:31 41.90857 -80.79608 4914 ft 162 kts 18°
2026-05-09 02:31 41.91868 -80.78939 4918 ft 162 kts 18°
2026-05-09 02:32 41.92880 -80.78266 4917 ft 162 kts 18°
2026-05-09 02:32 41.93891 -80.77592 4916 ft 162 kts 18°
2026-05-09 02:32 41.94895 -80.76900 4917 ft 162 kts 20°
2026-05-09 02:32 41.95896 -80.76199 4919 ft 163 kts 20°
2026-05-09 02:33 41.96901 -80.75503 4920 ft 163 kts 19°
2026-05-09 02:33 41.97916 -80.74819 4934 ft 163 kts 18°
2026-05-09 02:33 41.98937 -80.74145 4920 ft 164 kts 18°
2026-05-09 02:33 41.99962 -80.73471 4917 ft 164 kts 18°
2026-05-09 02:34 42.00985 -80.72797 4919 ft 164 kts 18°
2026-05-09 02:34 42.02016 -80.72122 4917 ft 165 kts 17°
2026-05-09 02:34 42.03047 -80.71459 4921 ft 164 kts 18°
2026-05-09 02:34 42.04057 -80.70796 4922 ft 163 kts 20°
2026-05-09 02:35 42.05076 -80.70121 4922 ft 163 kts 19°
2026-05-09 02:35 42.06091 -80.69452 4920 ft 162 kts 19°
2026-05-09 02:35 42.07104 -80.68778 4917 ft 162 kts 19°
2026-05-09 02:35 42.08114 -80.68106 4918 ft 162 kts 20°
2026-05-09 02:36 42.09118 -80.67434 4911 ft 161 kts 19°
2026-05-09 02:36 42.10122 -80.66765 4914 ft 161 kts 19°
2026-05-09 02:36 42.11125 -80.66094 4916 ft 161 kts 20°
2026-05-09 02:36 42.12126 -80.65424 4915 ft 161 kts 19°
2026-05-09 02:37 42.13130 -80.64752 4918 ft 161 kts 19°
2026-05-09 02:37 42.14132 -80.64082 4917 ft 161 kts 20°
2026-05-09 02:37 42.15136 -80.63406 4916 ft 161 kts 20°
2026-05-09 02:37 42.16140 -80.62730 4914 ft 161 kts 20°
2026-05-09 02:38 42.17134 -80.62065 4913 ft 161 kts 20°
2026-05-09 02:38 42.18139 -80.61392 4915 ft 162 kts 20°
2026-05-09 02:38 42.19150 -80.60716 4912 ft 162 kts 20°
2026-05-09 02:38 42.20155 -80.60041 4912 ft 162 kts 20°
2026-05-09 02:39 42.21166 -80.59364 4912 ft 162 kts 20°
2026-05-09 02:39 42.22174 -80.58686 4911 ft 162 kts 20°
2026-05-09 02:39 42.23186 -80.58009 4917 ft 162 kts 21°
2026-05-09 02:39 42.24195 -80.57331 4915 ft 162 kts 21°
2026-05-09 02:40 42.25206 -80.56652 4914 ft 162 kts 21°
2026-05-09 02:40 42.26203 -80.55981 4913 ft 162 kts 21°
2026-05-09 02:40 42.26885 -80.55521 4912 ft 162 kts 21°
2026-05-09 02:40 42.28220 -80.54623 4911 ft 162 kts 21°
2026-05-09 02:41 42.29228 -80.53944 4911 ft 162 kts 21°
2026-05-09 02:41 42.30233 -80.53268 4906 ft 161 kts 21°
2026-05-09 02:41 42.31240 -80.52589 4909 ft 161 kts 21°
2026-05-09 02:41 42.32244 -80.51913 4911 ft 161 kts 21°
2026-05-09 02:42 42.32912 -80.51462 4911 ft 161 kts 21°
2026-05-09 02:42 42.33916 -80.50785 4908 ft 161 kts 21°
2026-05-09 02:42 42.34919 -80.50108 4906 ft 161 kts 21°
2026-05-09 02:42 42.35922 -80.49431 4908 ft 161 kts 21°
2026-05-09 02:43 42.36923 -80.48756 4907 ft 161 kts 21°
2026-05-09 02:43 42.37924 -80.48081 4908 ft 161 kts 21°
2026-05-09 02:43 42.38925 -80.47403 4908 ft 161 kts 21°
2026-05-09 02:43 42.39928 -80.46726 4909 ft 161 kts 21°
2026-05-09 02:44 42.40931 -80.46049 4903 ft 161 kts 21°
2026-05-09 02:44 42.41935 -80.45370 4903 ft 161 kts 21°
2026-05-09 02:44 42.42938 -80.44690 4902 ft 161 kts 21°
2026-05-09 02:44 42.43943 -80.44011 4902 ft 161 kts 21°
2026-05-09 02:45 42.44937 -80.43336 4908 ft 162 kts 21°
2026-05-09 02:45 42.45943 -80.42652 4906 ft 162 kts 21°
2026-05-09 02:45 42.46951 -80.41972 4908 ft 162 kts 21°
2026-05-09 02:45 42.47969 -80.41315 4907 ft 161 kts 19°
2026-05-09 02:46 42.48983 -80.40650 4903 ft 162 kts 22°
2026-05-09 02:46 42.49986 -80.39951 4901 ft 162 kts 22°
2026-05-09 02:46 42.50990 -80.39251 4900 ft 162 kts 22°
2026-05-09 02:46 42.51993 -80.38558 4903 ft 162 kts 22°
2026-05-09 02:47 42.52999 -80.37868 4901 ft 162 kts 21°
2026-05-09 02:47 42.54005 -80.37182 4902 ft 162 kts 21°
2026-05-09 02:47 42.55014 -80.36499 4902 ft 162 kts 21°
2026-05-09 02:47 42.56007 -80.35823 4903 ft 162 kts 21°
2026-05-09 02:48 42.57012 -80.35139 4896 ft 161 kts 21°
2026-05-09 02:48 42.58018 -80.34455 4899 ft 161 kts 21°
2026-05-09 02:48 42.59021 -80.33772 4898 ft 161 kts 21°
2026-05-09 02:48 42.60024 -80.33090 4900 ft 161 kts 21°
2026-05-09 02:49 42.61027 -80.32408 4907 ft 161 kts 22°
2026-05-09 02:49 42.62035 -80.31723 4905 ft 161 kts 22°
2026-05-09 02:49 42.63040 -80.31036 4901 ft 161 kts 22°
2026-05-09 02:49 42.64043 -80.30352 4898 ft 161 kts 22°
2026-05-09 02:50 42.65044 -80.29669 4897 ft 161 kts 22°
2026-05-09 02:50 42.66032 -80.28995 4897 ft 161 kts 22°
2026-05-09 02:50 42.67031 -80.28313 4896 ft 161 kts 22°
2026-05-09 02:50 42.68032 -80.27639 4898 ft 160 kts 22°
2026-05-09 02:51 42.69036 -80.26971 4897 ft 160 kts 22°
2026-05-09 02:51 42.70036 -80.26296 4901 ft 161 kts 22°
2026-05-09 02:51 42.71036 -80.25608 4901 ft 161 kts 23°
2026-05-09 02:51 42.72031 -80.24919 4900 ft 161 kts 24°
2026-05-09 02:52 42.73026 -80.24212 4898 ft 161 kts 24°
2026-05-09 02:52 42.74023 -80.23511 4899 ft 161 kts 23°
2026-05-09 02:52 42.75022 -80.22816 4900 ft 162 kts 23°
2026-05-09 02:52 42.76026 -80.22123 4897 ft 161 kts 23°
2026-05-09 02:53 42.77029 -80.21433 4902 ft 161 kts 23°
2026-05-09 02:53 42.78032 -80.20746 4900 ft 161 kts 23°
2026-05-09 02:53 42.79035 -80.20057 4900 ft 162 kts 23°
2026-05-09 02:53 42.80026 -80.19378 4901 ft 162 kts 23°
2026-05-09 02:54 42.81031 -80.18690 4903 ft 162 kts 24°
2026-05-09 02:54 42.82037 -80.18003 4900 ft 162 kts 24°
2026-05-09 02:54 42.83041 -80.17312 4898 ft 162 kts 24°
2026-05-09 02:54 42.84045 -80.16621 4892 ft 161 kts 24°
2026-05-09 02:55 42.85049 -80.15933 4891 ft 161 kts 24°
2026-05-09 02:55 42.86045 -80.15247 4893 ft 160 kts 24°
2026-05-09 02:55 42.87040 -80.14558 4894 ft 160 kts 24°
2026-05-09 02:55 42.88034 -80.13875 4895 ft 160 kts 24°
2026-05-09 02:56 42.89028 -80.13198 4897 ft 160 kts 24°
2026-05-09 02:56 42.90024 -80.12514 4898 ft 160 kts 24°
2026-05-09 02:56 42.91020 -80.11830 4898 ft 160 kts 24°
2026-05-09 02:56 42.92017 -80.11139 4898 ft 161 kts 24°
2026-05-09 02:57 42.93013 -80.10450 4895 ft 161 kts 24°
2026-05-09 02:57 42.94012 -80.09755 4894 ft 161 kts 25°
2026-05-09 02:57 42.95005 -80.09057 4895 ft 160 kts 24°
2026-05-09 02:57 42.95998 -80.08368 4895 ft 160 kts 25°
2026-05-09 02:58 42.96992 -80.07673 4895 ft 160 kts 25°
2026-05-09 02:58 42.97988 -80.06994 4893 ft 160 kts 21°
2026-05-09 02:58 42.99022 -80.06432 4884 ft 160 kts 17°
2026-05-09 02:58 43.00065 -80.05953 4880 ft 160 kts 14°
2026-05-09 02:59 43.01140 -80.05507 4837 ft 163 kts 14°
2026-05-09 02:59 43.02252 -80.05059 4727 ft 170 kts 16°
2026-05-09 02:59 43.03384 -80.04509 4647 ft 175 kts 18°
2026-05-09 02:59 43.04539 -80.03899 4524 ft 180 kts 20°
2026-05-09 03:00 43.05701 -80.03276 4505 ft 177 kts 20°
2026-05-09 03:00 43.06864 -80.02623 4303 ft 185 kts 22°
2026-05-09 03:00 43.08035 -80.01854 4131 ft 187 kts 26°
2026-05-09 03:00 43.09191 -80.01029 3954 ft 188 kts 26°
2026-05-09 03:01 43.10397 -80.00251 3607 ft 195 kts 21°
2026-05-09 03:01 43.11623 -79.99630 3325 ft 182 kts 19°
2026-05-09 03:01 43.12806 -79.99067 2960 ft 179 kts 18°
2026-05-09 03:01 43.13972 -79.98493 2592 ft 178 kts 19°
2026-05-09 03:02 43.15134 -79.97963 2283 ft 174 kts 19°
2026-05-09 03:02 43.16257 -79.97429 1914 ft 166 kts 16°
2026-05-09 03:02 43.17299 -79.96940 1549 ft 151 kts 33°
2026-05-09 03:02 43.17883 -79.95877 1210 ft 141 kts 71°
2026-05-09 03:03 43.17895 -79.94600 852 ft 129 kts 109°
2026-05-09 03:03 43.17675 -79.93589 781 ft 88 kts 110°
2026-05-09 03:03 43.17540 -79.92980 780 ft 53 kts 107°
2026-05-09 03:03 43.17452 -79.92599 779 ft 27 kts 107°
2026-05-09 03:04 43.17421 -79.92464 778 ft 13 kts 108°
2026-05-09 03:04 43.17395 -79.92367 777 ft 6 kts 126°
2026-05-09 03:04 43.17367 -79.92384 777 ft 10 kts 231°
2026-05-09 03:04 43.17280 -79.92522 775 ft 27 kts 230°
2026-05-09 03:05 43.17140 -79.92740 772 ft 30 kts 226°
2026-05-09 03:05 43.17012 -79.92935 771 ft 30 kts 227°
2026-05-09 03:05 43.16852 -79.93186 775 ft 40 kts 229°
2026-05-09 03:05 43.16698 -79.93421 778 ft 17 kts 203°
2026-05-09 03:06 43.16623 -79.93377 775 ft 12 kts 134°
2026-05-09 03:06 43.16539 -79.93342 775 ft 19 kts 230°
2026-05-09 03:06 43.16455 -79.93473 775 ft 18 kts 227°
2026-05-09 03:06 43.16333 -79.93529 775 ft 20 kts 154°
2026-05-09 03:07 43.16260 -79.93363 775 ft 23 kts 110°
2026-05-09 03:07 43.16214 -79.93188 775 ft 16 kts 103°
2026-05-09 03:07 43.16145 -79.93056 775 ft 17 kts 153°
2026-05-09 03:07 43.16091 -79.93069 775 ft 0 kts 348°